CW0121 Weather Reports


Display with metric or nautical units.
time (UTC)temp
F
wind
direction
speed
MPH
gust
MPH
rain 1hr
in
rain 24hr
in
rain mn
in
humidity
%
barometer
mb
20260509070503 51 50 9.0 14.0 0.00 0.00 0.00 78 1005.8
20260509070014 51 24 8.0 18.0 0.00 0.00 0.00 77 1004.5
20260509070011 51 27 8.0 21.0 0.00 0.00 0.00 77 1006.2
20260509065502 51 41 11.0 21.0 0.00 0.00 0.00 76 1005.9
20260509065003 52 20 13.0 20.0 0.00 0.00 0.00 74 1005.9
20260509064512 52 15 12.0 18.0 0.00 0.00 0.00 73 1005.7
20260509064009 53 68 13.0 21.0 0.00 0.00 0.00 71 1005.7
20260509063504 54 20 12.0 22.0 0.00 0.00 0.00 68 1005.6
20260509063018 54 46 15.0 22.0 0.00 0.00 0.00 65 1005.7
20260509063006 54 354 14.0 22.0 0.00 0.00 0.00 65 1004.1
20260509062508 55 9 10.0 21.0 0.00 0.00 0.00 61 1005.4
20260509062008 55 10 12.0 20.0 0.00 0.00 0.00 59 1005.4
20260509061512 55 360 8.0 14.0 0.00 0.00 0.00 56 1005.3
20260509061505 55 360 8.0 14.0 0.00 0.00 0.00 56 1003.6
20260509061005 54 25 8.0 12.0 0.00 0.00 0.00 54 1005.3
20260509060505 54 338 6.0 11.0 0.00 0.00 0.00 53 1005.2
20260509060058 54 317 4.0 8.0 0.00 0.00 0.00 53 1003.2
20260509060019 54 338 4.0 8.0 0.00 0.00 0.00 53 1004.8
20260509055503 54 311 5.0 8.0 0.00 0.00 0.00 53 1004.7
20260509055005 54 319 5.0 8.0 0.00 0.00 0.00 52 1004.7
20260509054602 54 282 4.0 10.0 0.00 0.00 0.00 52 1002.8
20260509054512 55 307 5.0 10.0 0.00 0.00 0.00 51 1004.6
20260509054006 55 307 6.0 14.0 0.00 0.00 0.00 49 1004.6
20260509053506 55 330 5.0 14.0 0.00 0.00 0.00 48 1004.7
20260509053058 55 324 8.0 16.0 0.00 0.00 0.00 47 1002.9
20260509053018 55 318 7.0 16.0 0.00 0.00 0.00 46 1004.7
20260509052503 54 319 9.0 19.0 0.00 0.00 0.00 48 1004.6
20260509052006 52 330 8.0 19.0 0.00 0.00 0.00 51 1004.8
20260509051558 52 248 5.0 8.0 0.00 0.00 0.00 49 1001.9
20260509051515 52 239 6.0 8.0 0.00 0.00 0.00 49 1003.6
20260509051003 52 258 2.0 5.0 0.00 0.00 0.00 49 1003.7
20260509050508 52 248 3.0 8.0 0.00 0.00 0.00 48 1003.8
20260509050048 53 232 4.0 10.0 0.00 0.00 0.00 47 1002.1
20260509050039 53 238 5.0 10.0 0.00 0.00 0.00 47 1003.9
20260509045505 53 246 7.0 10.0 0.00 0.00 0.00 47 1003.9
20260509045006 53 238 5.0 8.0 0.00 0.00 0.00 47 1003.9
20260509044545 53 238 5.0 9.0 0.00 0.00 0.00 48 1002.2
20260509044515 53 240 6.0 9.0 0.00 0.00 0.00 47 1003.9
20260509044006 53 229 6.0 11.0 0.00 0.00 0.00 47 1003.8
20260509043506 53 229 7.0 11.0 0.00 0.00 0.00 47 1003.9
20260509043044 53 237 8.0 11.0 0.00 0.00 0.00 47 1002.2
20260509043012 53 236 8.0 11.0 0.00 0.00 0.00 46 1003.9
20260509042506 53 231 8.0 11.0 0.00 0.00 0.00 47 1003.8
20260509042011 52 233 7.0 10.0 0.00 0.00 0.00 47 1003.9
20260509041544 52 226 7.0 10.0 0.00 0.00 0.00 47 1002.2
20260509041520 52 217 7.0 10.0 0.00 0.00 0.00 47 1003.9
20260509041006 53 219 7.0 10.0 0.00 0.00 0.00 46 1003.9
20260509040512 53 219 8.0 10.0 0.00 0.00 0.00 46 1003.9
20260509040044 53 236 7.0 9.0 0.00 0.00 0.00 46 1002.2
20260509040018 53 221 7.0 9.0 0.00 0.00 0.00 46 1004.0
20260509035510 53 231 6.0 8.0 0.00 0.00 0.00 46 1004.1
20260509035007 52 233 5.0 7.0 0.00 0.00 0.00 47 1004.1
20260509034545 52 217 5.0 7.0 0.00 0.00 0.00 48 1002.4
20260509034518 52 221 5.0 7.0 0.00 0.00 0.00 47 1004.2
20260509034006 52 202 6.0 8.0 0.00 0.00 0.00 47 1004.2
20260509033506 52 224 6.0 8.0 0.00 0.00 0.00 47 1004.3
20260509033040 52 218 4.0 8.0 0.00 0.00 0.00 47 1002.4
20260509033019 52 227 5.0 6.0 0.00 0.00 0.00 47 1004.3
20260509032508 52 211 5.0 6.0 0.00 0.00 0.00 47 1004.3
20260509032011 51 217 5.0 6.0 0.00 0.00 0.00 47 1004.3
20260509031539 51 217 4.0 6.0 0.00 0.00 0.00 48 1002.6
20260509031528 51 226 4.0 5.0 0.00 0.00 0.00 48 1004.3
20260509031009 51 208 3.0 5.0 0.00 0.00 0.00 47 1004.4
20260509030506 51 211 3.0 4.0 0.00 0.00 0.00 47 1004.4
20260509030038 51 216 2.0 4.0 0.00 0.00 0.00 47 1002.7
20260509030019 52 212 3.0 4.0 0.00 0.00 0.00 47 1004.5
20260509025510 52 212 2.0 3.0 0.00 0.00 0.00 47 1004.5
20260509025006 52 205 1.0 4.0 0.00 0.00 0.00 46 1004.5
20260509024536 53 214 2.0 4.0 0.00 0.00 0.00 44 1002.7
20260509024533 54 212 2.0 4.0 0.00 0.00 0.00 44 1004.7
20260509024009 54 205 2.0 4.0 0.00 0.00 0.00 43 1004.6
20260509023507 53 217 2.0 5.0 0.00 0.00 0.00 44 1004.7
20260509023039 54 227 2.0 6.0 0.00 0.00 0.00 43 1002.9
20260509023020 54 230 2.0 6.0 0.00 0.00 0.00 43 1004.7
20260509022513 55 232 3.0 6.0 0.00 0.00 0.00 40 1004.7
20260509022006 56 237 2.0 3.0 0.00 0.00 0.00 40 1004.7
20260509021535 56 217 1.0 4.0 0.00 0.00 0.00 40 1002.9
20260509021520 56 222 1.0 4.0 0.00 0.00 0.00 39 1004.7
20260509021005 58 247 3.0 4.0 0.00 0.00 0.00 37 1004.8
20260509020505 59 250 4.0 4.0 0.00 0.00 0.00 37 1004.8
20260509020036 59 254 2.0 4.0 0.00 0.00 0.00 36 1003.1
20260509020020 59 251 3.0 4.0 0.00 0.00 0.00 36 1004.8
20260509015507 59 248 3.0 4.0 0.00 0.00 0.00 36 1004.9
20260509015007 60 238 3.0 4.0 0.00 0.00 0.00 35 1005.0
20260509014541 62 246 2.0 4.0 0.00 0.00 0.00 33 1003.3
20260509014519 62 244 2.0 4.0 0.00 0.00 0.00 33 1005.0
20260509014005 63 243 1.0 2.0 0.00 0.00 0.00 33 1005.0
20260509013507 63 268 1.0 2.0 0.00 0.00 0.00 33 1005.1
20260509013028 63 266 0.0 2.0 0.00 0.00 0.00 33 1003.3
20260509013026 63 266 1.0 2.0 0.00 0.00 0.00 33 1005.1
20260509012506 64 282 0.0 1.0 0.00 0.00 0.00 33 1005.1
20260509012006 64 283 0.0 5.0 0.00 0.00 0.00 32 1005.1
20260509011528 65 281 1.0 5.0 0.00 0.00 0.00 32 1003.4
20260509011520 65 281 1.0 5.0 0.00 0.00 0.00 31 1005.1
20260509011010 65 304 1.0 5.0 0.00 0.00 0.00 31 1005.2
20260509010506 65 305 2.0 7.0 0.00 0.00 0.00 31 1005.2
20260509010027 66 311 3.0 7.0 0.00 0.00 0.00 31 1003.4
20260509010024 66 295 3.0 7.0 0.00 0.00 0.00 31 1005.2
20260509005507 66 312 3.0 8.0 0.00 0.00 0.00 30 1005.3
20260509005007 67 305 4.0 10.0 0.00 0.00 0.00 29 1005.3
20260509004529 67 290 4.0 10.0 0.00 0.00 0.00 28 1005.4
20260509004525 67 300 4.0 10.0 0.00 0.00 0.00 29 1003.6
20260509004008 67 304 5.0 11.0 0.00 0.00 0.00 28 1005.4
20260509003507 67 297 7.0 11.0 0.00 0.00 0.00 28 1005.5
20260509003031 67 295 5.0 16.0 0.00 0.00 0.00 29 1003.7
20260509003024 67 284 6.0 16.0 0.00 0.00 0.00 28 1005.5
20260509002506 68 314 9.0 16.0 0.00 0.00 0.00 27 1005.5
20260509002016 68 314 8.0 17.0 0.00 0.00 0.00 27 1005.5
20260509001522 68 313 11.0 17.0 0.00 0.00 0.00 27 1004.0
20260509001519 68 300 12.0 18.0 0.00 0.00 0.00 27 1005.7
20260509001004 68 327 9.0 18.0 0.00 0.00 0.00 27 1005.7
20260509000503 69 323 9.0 19.0 0.00 0.00 0.00 26 1005.7
20260509000022 69 342 9.0 19.0 0.00 0.00 0.00 25 1005.7
20260508235504 69 277 9.0 16.0 0.00 0.00 0.00 26 1005.7
20260508235004 69 292 11.0 16.0 0.00 0.00 0.00 25 1005.7
20260508234524 69 328 6.0 16.0 0.00 0.00 0.00 26 1005.7
20260508234520 69 307 6.0 15.0 0.00 0.00 0.00 28 1004.1
20260508234008 69 298 9.0 16.0 0.00 0.00 0.00 26 1005.7
20260508233507 69 309 8.0 16.0 0.00 0.00 0.00 26 1005.8
20260508233024 69 317 9.0 18.0 0.00 0.00 0.00 25 1005.8
20260508233019 69 315 9.0 18.0 0.00 0.00 0.00 26 1004.1
20260508232508 68 321 9.0 18.0 0.00 0.00 0.00 27 1005.9
20260508232008 69 313 9.0 20.0 0.00 0.00 0.00 26 1005.9
20260508231521 69 330 11.0 23.0 0.00 0.00 0.00 26 1006.0
20260508231518 69 302 10.0 23.0 0.00 0.00 0.00 28 1004.3
20260508231002 69 296 12.0 23.0 0.00 0.00 0.00 25 1006.2
20260508230502 69 340 11.0 21.0 0.00 0.00 0.00 25 1006.1
20260508230017 69 319 9.0 21.0 0.00 0.00 0.00 27 1004.5
20260508230009 69 299 9.0 24.0 0.00 0.00 0.00 26 1006.1
20260508225502 69 342 13.0 26.0 0.00 0.00 0.00 25 1006.2
20260508225006 69 316 13.0 26.0 0.00 0.00 0.00 24 1006.1
20260508224525 69 333 14.0 23.0 0.00 0.00 0.00 24 1006.0
20260508224516 69 311 15.0 26.0 0.00 0.00 0.00 25 1004.4
20260508224005 69 321 12.0 25.0 0.00 0.00 0.00 24 1006.0
20260508223506 69 316 12.0 25.0 0.00 0.00 0.00 25 1006.1
20260508223032 69 355 16.0 25.0 0.00 0.00 0.00 24 1006.1
20260508223023 70 318 15.0 25.0 0.00 0.00 0.00 24 1004.4
20260508222506 70 352 15.0 23.0 0.00 0.00 0.00 24 1006.1
20260508222009 70 6 12.0 24.0 0.00 0.00 0.00 24 1006.1
20260508221531 69 313 11.0 24.0 0.00 0.00 0.00 25 1005.9
20260508221515 69 299 11.0 24.0 0.00 0.00 0.00 26 1004.3
20260508221009 69 303 12.0 23.0 0.00 0.00 0.00 25 1006.0
20260508220508 69 18 15.0 21.0 0.00 0.00 0.00 24 1006.0
20260508220033 69 281 11.0 25.0 0.00 0.00 0.00 25 1006.0
20260508220015 69 289 11.0 25.0 0.00 0.00 0.00 25 1004.4
20260508215502 69 317 14.0 25.0 0.00 0.00 0.00 24 1006.0
20260508215002 69 296 13.0 29.0 0.00 0.00 0.00 26 1006.0
20260508214514 69 342 12.0 29.0 0.00 0.00 0.00 26 1004.5
20260508214512 69 317 12.0 29.0 0.00 0.00 0.00 25 1006.1
20260508214004 69 320 15.0 28.0 0.00 0.00 0.00 25 1006.1
20260508213503 70 319 13.0 23.0 0.00 0.00 0.00 24 1006.1
20260508213030 70 317 11.0 23.0 0.00 0.00 0.00 25 1006.1
20260508213012 70 347 11.0 23.0 0.00 0.00 0.00 25 1004.5
20260508212505 70 321 15.0 23.0 0.00 0.00 0.00 24 1006.1
20260508212012 69 354 10.0 23.0 0.00 0.00 0.00 24 1006.1
20260508211521 70 359 14.0 23.0 0.00 0.00 0.00 24 1004.5
20260508211006 70 304 12.0 21.0 0.00 0.00 0.00 23 1006.0
20260508210508 70 307 13.0 20.0 0.00 0.00 0.00 23 1006.0
20260508210032 69 301 12.0 20.0 0.00 0.00 0.00 23 1005.9
20260508210012 69 302 11.0 20.0 0.00 0.00 0.00 23 1004.5
20260508205513 69 333 13.0 22.0 0.00 0.00 0.00 23 1006.1
20260508205011 69 341 13.0 24.0 0.00 0.00 0.00 23 1006.0
20260508204526 69 304 13.0 24.0 0.00 0.00 0.00 23 1006.1
20260508204511 69 314 13.0 24.0 0.00 0.00 0.00 24 1004.6
20260508204003 70 303 13.0 24.0 0.00 0.00 0.00 23 1006.0
20260508203505 70 294 16.0 24.0 0.00 0.00 0.00 24 1006.0
20260508203013 70 338 10.0 21.0 0.00 0.00 0.00 23 1006.1
20260508203010 70 11 9.0 21.0 0.00 0.00 0.00 24 1004.5
20260508202506 70 295 10.0 21.0 0.00 0.00 0.00 23 1006.1
20260508202003 69 300 14.0 24.0 0.00 0.00 0.00 23 1006.0
20260508201525 70 316 12.0 24.0 0.00 0.00 0.00 23 1005.9
20260508201509 70 316 11.0 24.0 0.00 0.00 0.00 24 1004.4
20260508201005 70 321 12.0 23.0 0.00 0.00 0.00 23 1005.9
20260508200506 70 337 12.0 23.0 0.00 0.00 0.00 24 1005.9
20260508200031 70 306 11.0 23.0 0.00 0.00 0.00 25 1005.9
20260508200010 70 316 11.0 23.0 0.00 0.00 0.00 25 1004.4
20260508195505 69 310 9.0 21.0 0.00 0.00 0.00 23 1005.9
20260508195007 69 320 13.0 25.0 0.00 0.00 0.00 23 1005.8
20260508194526 69 304 13.0 25.0 0.00 0.00 0.00 24 1005.9
20260508194513 69 316 13.0 25.0 0.00 0.00 0.00 25 1004.4
20260508194009 69 312 17.0 22.0 0.00 0.00 0.00 23 1005.9
20260508193506 69 313 15.0 22.0 0.00 0.00 0.00 23 1005.9
20260508193024 69 316 9.0 28.0 0.00 0.00 0.00 25 1006.0
20260508193009 69 323 8.0 28.0 0.00 0.00 0.00 25 1004.5
20260508192504 69 295 17.0 28.0 0.00 0.00 0.00 25 1005.9
20260508192006 70 321 12.0 24.0 0.00 0.00 0.00 26 1005.9
20260508191523 69 314 8.0 20.0 0.00 0.00 0.00 25 1005.8
20260508191509 69 314 8.0 20.0 0.00 0.00 0.00 25 1004.3
20260508191004 69 307 11.0 24.0 0.00 0.00 0.00 25 1005.8
20260508190507 69 288 14.0 24.0 0.00 0.00 0.00 26 1005.8
20260508190033 69 309 14.0 24.0 0.00 0.00 0.00 26 1005.8
20260508190004 69 300 14.0 24.0 0.00 0.00 0.00 27 1004.4
20260508185509 69 301 14.0 24.0 0.00 0.00 0.00 27 1005.9
20260508185007 69 312 10.0 25.0 0.00 0.00 0.00 28 1005.9
20260508184528 69 307 16.0 25.0 0.00 0.00 0.00 27 1005.9
20260508184506 69 307 15.0 25.0 0.00 0.00 0.00 28 1004.5
20260508184007 69 321 11.0 26.0 0.00 0.00 0.00 28 1005.9
20260508183508 69 295 16.0 26.0 0.00 0.00 0.00 27 1005.8
20260508183028 69 310 11.0 24.0 0.00 0.00 0.00 28 1005.9
20260508183001 69 310 11.0 24.0 0.00 0.00 0.00 28 1004.4
20260508182507 69 341 9.0 21.0 0.00 0.00 0.00 28 1005.9
20260508182009 68 290 13.0 23.0 0.00 0.00 0.00 27 1006.0
20260508181600 68 316 13.0 23.0 0.00 0.00 0.00 28 1004.6
20260508181543 68 302 12.0 23.0 0.00 0.00 0.00 29 1006.0
20260508181003 68 20 10.0 23.0 0.00 0.00 0.00 28 1006.0
20260508180507 67 300 13.0 23.0 0.00 0.00 0.00 28 1006.1
20260508180100 68 27 11.0 23.0 0.00 0.00 0.00 28 1004.8
20260508180016 68 309 12.0 23.0 0.00 0.00 0.00 27 1006.2
20260508175508 69 311 13.0 23.0 0.00 0.00 0.00 28 1006.1
20260508175008 68 8 11.0 22.0 0.00 0.00 0.00 27 1006.1
20260508174612 69 295 11.0 22.0 0.00 0.00 0.00 28 1004.9
20260508174529 68 351 12.0 22.0 0.00 0.00 0.00 28 1005.9
20260508174006 67 338 9.0 22.0 0.00 0.00 0.00 28 1006.1
20260508173507 68 287 10.0 22.0 0.00 0.00 0.00 28 1006.1
20260508173057 68 300 9.0 19.0 0.00 0.00 0.00 28 1004.8
20260508173028 68 295 12.0 19.0 0.00 0.00 0.00 27 1006.2
20260508172507 69 335 4.0 18.0 0.00 0.00 0.00 29 1006.2
20260508172015 69 291 9.0 18.0 0.00 0.00 0.00 27 1006.3
20260508171557 69 273 4.0 14.0 0.00 0.00 0.00 30 1004.9
20260508171526 68 264 4.0 14.0 0.00 0.00 0.00 30 1006.3
20260508171014 69 309 7.0 14.0 0.00 0.00 0.00 26 1006.4
20260508170515 68 293 4.0 10.0 0.00 0.00 0.00 28 1006.5
20260508170054 67 288 4.0 11.0 0.00 0.00 0.00 29 1005.2
20260508170026 67 317 5.0 11.0 0.00 0.00 0.00 28 1006.5
20260508165505 67 346 8.0 11.0 0.00 0.00 0.00 28 1006.5
20260508165004 67 294 4.0 7.0 0.00 0.00 0.00 29 1006.5
20260508164550 67 13 2.0 6.0 0.00 0.00 0.00 30 1005.3
20260508164533 67 279 3.0 9.0 0.00 0.00 0.00 29 1006.5
20260508164006 67 323 3.0 9.0 0.00 0.00 0.00 30 1006.5
20260508163506 67 339 4.0 9.0 0.00 0.00 0.00 28 1006.5
20260508163046 66 313 3.0 9.0 0.00 0.00 0.00 29 1005.5
20260508163026 66 252 2.0 9.0 0.00 0.00 0.00 27 1006.5
20260508162509 66 318 3.0 7.0 0.00 0.00 0.00 29 1006.6
20260508162009 64 282 3.0 7.0 0.00 0.00 0.00 33 1006.7
20260508161546 63 330 1.0 5.0 0.00 0.00 0.00 35 1005.6
20260508161528 63 283 2.0 9.0 0.00 0.00 0.00 35 1006.9
20260508161011 62 260 2.0 10.0 0.00 0.00 0.00 36 1006.9
20260508160507 61 241 7.0 10.0 0.00 0.00 0.00 35 1006.9
20260508160039 61 257 6.0 10.0 0.00 0.00 0.00 35 1005.7
20260508160037 61 245 5.0 8.0 0.00 0.00 0.00 35 1007.0
20260508155513 60 259 4.0 10.0 0.00 0.00 0.00 35 1006.9
20260508155010 60 306 4.0 10.0 0.00 0.00 0.00 38 1007.0
20260508154542 59 231 5.0 10.0 0.00 0.00 0.00 38 1005.7
20260508154526 59 245 4.0 10.0 0.00 0.00 0.00 38 1006.9
20260508154005 58 245 6.0 11.0 0.00 0.00 0.00 36 1006.9
20260508153505 58 243 6.0 11.0 0.00 0.00 0.00 36 1006.9
20260508153032 58 243 8.0 11.0 0.00 0.00 0.00 38 1005.8
20260508153020 58 234 9.0 11.0 0.00 0.00 0.00 36 1006.9
20260508152506 57 257 6.0 10.0 0.00 0.00 0.00 38 1007.0
20260508152007 57 227 7.0 10.0 0.00 0.00 0.00 38 1007.0
20260508151532 56 233 7.0 11.0 0.00 0.00 0.00 38 1006.1
20260508151525 56 244 8.0 11.0 0.00 0.00 0.00 37 1007.2
20260508151008 56 245 5.0 11.0 0.00 0.00 0.00 39 1007.2
20260508150513 55 244 6.0 10.0 0.00 0.00 0.00 40 1007.3
20260508150028 55 249 7.0 10.0 0.00 0.00 0.00 39 1007.3
20260508145515 55 220 6.0 10.0 0.00 0.00 0.00 41 1007.3
20260508145016 54 221 6.0 10.0 0.00 0.00 0.00 41 1007.4
20260508144528 54 238 6.0 10.0 0.00 0.00 0.00 41 1007.4
20260508144521 54 248 6.0 10.0 0.00 0.00 0.00 42 1006.4
20260508144016 54 243 5.0 9.0 0.00 0.00 0.00 44 1007.4
20260508143516 53 226 6.0 9.0 0.00 0.00 0.00 43 1007.4
20260508143032 52 221 5.0 8.0 0.00 0.00 0.00 44 1007.4
20260508143017 52 221 5.0 8.0 0.00 0.00 0.00 44 1006.3
20260508142507 52 220 6.0 9.0 0.00 0.00 0.00 44 1007.3
20260508142007 52 234 6.0 9.0 0.00 0.00 0.00 43 1007.3
20260508141528 52 224 5.0 9.0 0.00 0.00 0.00 42 1007.3
20260508141520 52 224 5.0 9.0 0.00 0.00 0.00 42 1006.3
20260508141009 52 222 5.0 9.0 0.00 0.00 0.00 42 1007.3
20260508140506 52 210 5.0 9.0 0.00 0.00 0.00 42 1007.2
20260508140026 52 226 6.0 9.0 0.00 0.00 0.00 43 1007.2
20260508140021 52 212 5.0 9.0 0.00 0.00 0.00 44 1006.3
20260508135511 52 208 6.0 9.0 0.00 0.00 0.00 43 1007.2
20260508135010 52 215 6.0 9.0 0.00 0.00 0.00 44 1007.3
20260508134526 51 219 6.0 9.0 0.00 0.00 0.00 45 1007.4
20260508134513 51 214 5.0 9.0 0.00 0.00 0.00 46 1006.5
20260508134012 51 207 5.0 9.0 0.00 0.00 0.00 46 1007.5
20260508133511 51 195 7.0 9.0 0.00 0.00 0.00 45 1007.5
20260508133029 51 217 6.0 9.0 0.00 0.00 0.00 46 1007.6
20260508133009 51 209 6.0 9.0 0.00 0.00 0.00 46 1006.6
20260508132516 50 210 6.0 9.0 0.00 0.00 0.00 47 1007.7
20260508132013 49 206 6.0 8.0 0.00 0.00 0.00 48 1007.9
20260508131530 49 207 7.0 8.0 0.00 0.00 0.00 49 1007.9
20260508131507 49 201 6.0 8.0 0.00 0.00 0.00 50 1006.9
20260508131008 48 205 5.0 9.0 0.00 0.00 0.00 54 1007.9
20260508130506 47 204 6.0 9.0 0.00 0.00 0.00 53 1007.9
20260508130025 47 207 6.0 8.0 0.00 0.00 0.00 53 1007.7
20260508130002 47 207 6.0 8.0 0.00 0.00 0.00 54 1006.8
20260508125509 46 210 4.0 7.0 0.00 0.00 0.00 56 1007.7
20260508125008 45 196 4.0 7.0 0.00 0.00 0.00 57 1007.7
20260508124610 44 218 4.0 7.0 0.00 0.00 0.00 59 1006.7
20260508124526 44 206 4.0 7.0 0.00 0.00 0.00 58 1007.7
20260508124009 43 198 2.0 5.0 0.00 0.00 0.00 60 1007.7
20260508123508 43 162 2.0 5.0 0.00 0.00 0.00 61 1007.7
20260508123101 42 161 2.0 5.0 0.00 0.00 0.00 61 1006.8
20260508123030 42 162 2.0 5.0 0.00 0.00 0.00 61 1007.7
20260508122509 41 188 3.0 5.0 0.00 0.00 0.00 61 1007.8
20260508122009 40 158 2.0 4.0 0.00 0.00 0.00 62 1007.8
20260508121634 40 203 0.0 3.0 0.00 0.00 0.00 65 1006.9
20260508121525 40 219 1.0 3.0 0.00 0.00 0.00 64 1007.8
20260508121006 39 197 2.0 4.0 0.00 0.00 0.00 64 1007.7
20260508120506 39 230 2.0 4.0 0.00 0.00 0.00 63 1007.8
20260508120058 39 141 1.0 4.0 0.00 0.00 0.00 63 1006.9
20260508120019 39 179 2.0 4.0 0.00 0.00 0.00 62 1007.8
20260508115508 39 197 2.0 4.0 0.00 0.00 0.00 63 1007.7
20260508115007 39 198 1.0 4.0 0.00 0.00 0.00 64 1007.7
20260508114558 39 210 2.0 4.0 0.00 0.00 0.00 65 1006.9
20260508114524 38 205 2.0 4.0 0.00 0.00 0.00 65 1007.8
20260508114011 38 157 2.0 4.0 0.00 0.00 0.00 66 1007.7
20260508113504 38 165 2.0 4.0 0.00 0.00 0.00 67 1007.6
20260508113105 37 179 2.0 4.0 0.00 0.00 0.00 68 1006.8
20260508113008 37 139 2.0 3.0 0.00 0.00 0.00 67 1007.5
20260508112504 37 168 2.0 4.0 0.00 0.00 0.00 67 1007.6
20260508112005 37 161 2.0 6.0 0.00 0.00 0.00 66 1007.6
20260508111606 37 152 2.0 6.0 0.00 0.00 0.00 65 1006.7
20260508111513 37 153 3.0 6.0 0.00 0.00 0.00 65 1007.5
20260508111007 37 158 3.0 5.0 0.00 0.00 0.00 65 1007.7
20260508110508 37 195 1.0 3.0 0.00 0.00 0.00 65 1007.7
20260508110052 37 197 0.0 2.0 0.00 0.00 0.00 65 1007.0
20260508110019 37 203 1.0 3.0 0.00 0.00 0.00 64 1007.9
20260508105507 37 207 1.0 3.0 0.00 0.00 0.00 64 1008.0
20260508105009 37 146 1.0 2.0 0.00 0.00 0.00 64 1008.0
20260508104558 38 169 0.0 3.0 0.00 0.00 0.00 65 1007.2
20260508104520 38 202 0.0 4.0 0.00 0.00 0.00 64 1008.1
20260508104009 38 198 1.0 4.0 0.00 0.00 0.00 63 1007.9
20260508103506 38 163 2.0 4.0 0.00 0.00 0.00 63 1007.9
20260508103050 39 149 1.0 3.0 0.00 0.00 0.00 65 1007.1
20260508103032 39 152 1.0 3.0 0.00 0.00 0.00 64 1008.0
20260508102511 39 148 1.0 2.0 0.00 0.00 0.00 65 1008.0
20260508102002 39 138 1.0 2.0 0.00 0.00 0.00 65 1007.9
20260508101549 40 142 1.0 2.0 0.00 0.00 0.00 65 1007.1
20260508101515 40 145 1.0 2.0 0.00 0.00 0.00 65 1008.0
20260508101004 40 152 1.0 3.0 0.00 0.00 0.00 64 1008.0
20260508100503 40 146 1.0 4.0 0.00 0.00 0.00 66 1008.1
20260508100046 39 144 1.0 4.0 0.00 0.00 0.00 66 1007.3
20260508100014 39 176 2.0 4.0 0.00 0.00 0.00 66 1008.1
20260508095506 39 157 2.0 3.0 0.00 0.00 0.00 68 1008.1
20260508095010 39 167 2.0 3.0 0.00 0.00 0.00 69 1008.1
20260508094548 39 152 1.0 2.0 0.00 0.00 0.00 69 1007.3
20260508094518 39 148 2.0 2.0 0.00 0.00 0.00 69 1008.1
20260508094008 39 134 1.0 2.0 0.00 0.00 0.00 67 1008.1
20260508093512 39 142 1.0 3.0 0.00 0.00 0.00 66 1008.2
20260508093052 39 156 1.0 3.0 0.00 0.00 0.00 66 1007.4
20260508093022 39 169 2.0 3.0 0.00 0.00 0.00 66 1008.2
20260508092509 39 175 1.0 3.0 0.00 0.00 0.00 66 1008.3
20260508092009 39 165 2.0 3.0 0.00 0.00 0.00 65 1008.3
20260508091554 39 205 1.0 3.0 0.00 0.00 0.00 65 1007.3
20260508091527 39 146 1.0 3.0 0.00 0.00 0.00 65 1008.2
20260508091009 39 180 2.0 3.0 0.00 0.00 0.00 65 1008.2
20260508090502 39 168 1.0 4.0 0.00 0.00 0.00 65 1008.3
20260508090053 39 153 1.0 4.0 0.00 0.00 0.00 67 1007.3
20260508090011 39 152 1.0 4.0 0.00 0.00 0.00 66 1008.2
20260508085502 39 190 0.0 4.0 0.00 0.00 0.00 66 1008.2
20260508085002 39 165 2.0 4.0 0.00 0.00 0.00 65 1008.2
20260508084539 39 186 2.0 4.0 0.00 0.00 0.00 66 1007.3
20260508084514 39 169 2.0 4.0 0.00 0.00 0.00 65 1008.2
20260508084011 39 146 2.0 4.0 0.00 0.00 0.00 64 1008.2
20260508083507 39 185 2.0 4.0 0.00 0.00 0.00 64 1008.2
20260508083036 39 182 1.0 4.0 0.00 0.00 0.00 65 1007.5
20260508083019 38 195 1.0 4.0 0.00 0.00 0.00 64 1008.2
20260508082510 39 179 1.0 4.0 0.00 0.00 0.00 65 1008.3
20260508082008 38 179 2.0 4.0 0.00 0.00 0.00 65 1008.3
20260508081540 38 179 1.0 3.0 0.00 0.00 0.00 63 1007.5
20260508081525 38 168 1.0 3.0 0.00 0.00 0.00 62 1008.4
20260508081011 38 159 1.0 3.0 0.00 0.00 0.00 61 1008.4
20260508080506 38 162 2.0 3.0 0.00 0.00 0.00 61 1008.4
20260508080040 39 187 0.0 3.0 0.00 0.00 0.00 61 1007.5
20260508080029 39 205 0.0 3.0 0.00 0.00 0.00 60 1008.3
20260508075507 39 172 1.0 4.0 0.00 0.00 0.00 60 1008.4
20260508075009 39 169 1.0 4.0 0.00 0.00 0.00 60 1008.4
20260508074531 40 209 2.0 4.0 0.00 0.00 0.00 60 1007.6
20260508074508 40 169 2.0 4.0 0.00 0.00 0.00 59 1008.4
20260508074003 40 159 2.0 3.0 0.00 0.00 0.00 60 1008.4
20260508073505 40 162 1.0 2.0 0.00 0.00 0.00 60 1008.5
20260508073026 39 199 0.0 1.0 0.00 0.00 0.00 60 1007.6
20260508072510 39 136 1.0 2.0 0.00 0.00 0.00 59 1008.5
20260508072005 40 184 2.0 2.0 0.00 0.00 0.00 59 1008.4
20260508071526 40 151 0.0 2.0 0.00 0.00 0.00 61 1007.5
20260508071523 40 151 0.0 2.0 0.00 0.00 0.00 60 1008.4
20260508071013 40 191 0.0 3.0 0.00 0.00 0.00 59 1008.5